Date String (YYYY-MM-DD hh:mm:ss) UTC,Instrument flags,Ambient pressure (hPa),Sample flow (lpm),Bypass flow (lpm),Sample temperature (°C),Ambient temperature (°C),ASC tube jacket temperature (°C),LED temperature (°C),Box temperature (°C),Sample RH (%),Span deviation,Mass concentration (μg/m³),Mass concentration (μg/m³),Mass concentration (μg/m³)
DateTimeUTC,F1_M11,P_M11,Q1_M11,Q2_M11,T1_M11,T2_M11,T3_M11,T4_M11,T5_M11,U1_M11,ZSPAN_M11,X0_M11,X2_M11,X1_M11
2022-10-27 02:00:00,,0819.0,5.01,0.00,28.0,26.5,00.0,36.8,29.9,12.1,0000.0,0015.13,0004.15,0003.27
2022-10-27 02:01:00,,0818.9,4.99,0.00,28.0,26.5,00.0,36.8,29.9,12.0,0000.0,0015.34,0004.19,0003.30
2022-10-27 02:02:00,,0819.0,4.99,0.00,28.0,26.5,00.0,36.8,29.9,11.9,0000.0,0015.53,0004.29,0003.35
2022-10-27 02:03:00,,0819.0,5.02,0.00,28.0,26.5,00.0,36.8,29.9,11.9,0000.0,0016.02,0004.37,0003.39
2022-10-27 02:04:00,,0818.9,5.00,0.00,28.0,26.5,00.0,36.8,29.9,12.0,0000.0,0016.11,0004.39,0003.40
2022-10-27 02:05:00,,0818.9,4.99,0.00,28.0,26.5,00.0,36.8,29.9,11.9,0000.0,0014.65,0004.35,0003.40
2022-10-27 02:06:00,,0818.9,5.01,0.00,28.0,26.5,00.0,36.8,29.9,11.9,0000.0,0014.53,0004.32,0003.37
2022-10-27 02:07:00,,0818.9,4.99,0.00,28.0,26.5,00.0,36.8,29.9,11.9,0000.0,0014.74,0004.25,0003.32
2022-10-27 02:08:00,,0818.9,5.00,0.00,28.0,26.5,00.0,36.8,29.9,11.9,0000.0,0015.81,0004.17,0003.27
2022-10-27 02:09:00,,0818.9,5.01,0.00,28.0,26.5,00.0,36.8,29.9,11.8,0000.0,0016.54,0004.11,0003.21
2022-10-27 02:10:00,,0818.9,4.99,0.00,28.0,26.5,00.0,36.8,29.9,11.7,0000.0,0015.12,0003.96,0003.10
2022-10-27 02:11:00,,0818.9,5.00,0.00,28.0,26.6,00.0,36.8,29.9,11.7,0000.0,0013.80,0003.78,0002.90
2022-10-27 02:12:00,,0818.9,5.01,0.00,28.0,26.6,00.0,36.8,29.9,11.6,0000.0,0014.05,0003.62,0002.73
2022-10-27 02:13:00,,0818.9,4.99,0.00,28.0,26.6,00.0,36.8,29.9,11.7,0000.0,0013.54,0003.51,0002.63
2022-10-27 02:14:00,,0818.9,4.99,0.00,28.0,26.5,00.0,36.8,29.9,11.6,0000.0,0012.60,0003.39,0002.49
2022-10-27 02:15:00,,0818.9,5.01,0.00,28.0,26.5,00.0,36.8,29.9,11.6,0000.0,0011.98,0003.29,0002.36
2022-10-27 02:16:00,,0818.9,5.00,0.00,28.0,26.5,00.0,36.8,29.9,11.6,0000.0,0011.73,0003.21,0002.26
2022-10-27 02:17:00,,0818.9,4.99,0.00,28.0,26.5,00.0,36.8,29.9,11.6,0000.0,0010.82,0003.08,0002.15
2022-10-27 02:18:00,,0818.9,5.02,0.00,28.0,26.5,00.0,36.8,29.9,11.5,0000.0,0010.53,0002.93,0002.02
2022-10-27 02:19:00,,0818.9,4.98,0.00,28.0,26.5,00.0,36.8,29.9,11.4,0000.0,0008.74,0002.71,0001.84
2022-10-27 02:20:00,,0818.9,5.01,0.00,28.1,26.5,00.0,36.8,29.9,11.4,0000.0,0006.92,0002.44,0001.69
2022-10-27 02:21:00,,0818.9,5.00,0.00,28.1,26.5,00.0,36.8,29.9,11.4,0000.0,0006.38,0002.34,0001.62
2022-10-27 02:22:00,,0818.9,4.99,0.00,28.0,26.5,00.0,36.8,29.9,11.5,0000.0,0006.36,0002.32,0001.57
2022-10-27 02:23:00,,0818.9,5.02,0.00,28.0,26.5,00.0,36.8,29.9,11.8,0000.0,0006.53,0002.71,0001.79
2022-10-27 02:24:00,,0818.8,4.99,0.00,28.0,26.5,00.0,36.8,29.9,11.9,0000.0,0007.22,0003.10,0002.07
2022-10-27 02:25:00,,0818.9,5.00,0.00,28.0,26.5,00.0,36.8,29.9,11.9,0000.0,0008.13,0003.33,0002.37
2022-10-27 02:26:00,,0818.8,5.01,0.00,28.0,26.4,00.0,36.8,29.9,11.8,0000.0,0008.65,0003.50,0002.64
2022-10-27 02:27:00,,0818.8,4.98,0.00,28.0,26.4,00.0,36.8,29.9,11.9,0000.0,0010.05,0003.72,0002.96
2022-10-27 02:28:00,,0818.9,5.01,0.00,28.0,26.4,00.0,36.8,29.8,12.0,0000.0,0011.25,0003.99,0003.24
2022-10-27 02:29:00,,0818.9,5.01,0.00,28.0,26.4,00.0,36.8,29.8,12.0,0000.0,0012.59,0004.30,0003.45
2022-10-27 02:30:00,,0818.8,4.98,0.00,28.0,26.4,00.0,36.8,29.8,11.9,0000.0,0013.36,0004.59,0003.65
2022-10-27 02:31:00,,0818.8,5.02,0.00,28.0,26.4,00.0,36.8,29.8,11.8,0000.0,0014.26,0004.85,0003.80
2022-10-27 02:32:00,,0818.8,4.99,0.00,28.0,26.4,00.0,36.8,29.8,11.8,0000.0,0014.72,0005.00,0003.90
2022-10-27 02:33:00,,0818.8,4.99,0.00,28.0,26.4,00.0,36.8,29.8,11.8,0000.0,0014.94,0005.11,0004.00
2022-10-27 02:34:00,,0818.7,5.02,0.00,28.0,26.4,00.0,36.8,29.8,11.8,0000.0,0015.41,0005.06,0004.00
2022-10-27 02:35:00,,0818.7,4.99,0.00,28.0,26.4,00.0,36.8,29.8,11.8,0000.0,0015.14,0004.98,0003.93
2022-10-27 02:36:00,,0818.7,5.02,0.00,28.0,26.4,00.0,36.8,29.8,11.8,0000.0,0015.95,0004.88,0003.87
2022-10-27 02:37:00,,0818.7,4.99,0.00,28.0,26.4,00.0,36.8,29.8,11.8,0000.0,0015.58,0004.79,0003.82
2022-10-27 02:38:00,,0818.7,5.01,0.00,28.0,26.4,00.0,36.8,29.8,11.7,0000.0,0014.56,0004.67,0003.72
2022-10-27 02:39:00,,0818.7,5.00,0.00,28.0,26.3,00.0,36.8,29.8,11.9,0000.0,0013.64,0004.65,0003.67
2022-10-27 02:40:00,,0818.7,4.99,0.00,28.0,26.3,00.0,36.8,29.8,11.9,0000.0,0012.91,0004.60,0003.63
2022-10-27 02:41:00,,0818.7,5.02,0.00,27.9,26.2,00.0,36.8,29.8,11.8,0000.0,0012.68,0004.55,0003.61
2022-10-27 02:42:00,,0818.7,4.99,0.00,27.9,26.2,00.0,36.8,29.8,11.7,0000.0,0012.35,0004.52,0003.60
2022-10-27 02:43:00,,0818.7,4.99,0.00,27.9,26.2,00.0,36.8,29.8,11.9,0000.0,0013.24,0004.59,0003.66
2022-10-27 02:44:00,,0818.6,5.02,0.00,27.9,26.2,00.0,36.8,29.7,12.0,0000.0,0015.72,0004.77,0003.76
2022-10-27 02:45:00,,0818.6,5.00,0.00,27.9,26.2,00.0,36.8,29.7,12.0,0000.0,0017.35,0004.95,0003.89
2022-10-27 02:46:00,,0818.6,5.00,0.00,27.9,26.2,00.0,36.8,29.8,12.0,0000.0,0018.27,0005.10,0004.01
2022-10-27 02:47:00,,0818.6,5.01,0.00,27.9,26.2,00.0,36.8,29.7,12.0,0000.0,0018.29,0005.29,0004.12
2022-10-27 02:48:00,,0818.6,5.00,0.00,27.9,26.1,00.0,36.7,29.7,12.0,0000.0,0018.42,0005.47,0004.23
2022-10-27 02:49:00,,0818.6,5.00,0.00,27.9,26.1,00.0,36.7,29.7,12.0,0000.0,0018.87,0005.66,0004.38
2022-10-27 02:50:00,,0818.7,5.01,0.00,27.8,26.1,00.0,36.7,29.6,11.9,0000.0,0019.56,0005.79,0004.46
2022-10-27 02:51:00,,0818.7,4.98,0.00,27.8,26.1,00.0,36.7,29.6,11.8,0000.0,0019.91,0005.77,0004.46
2022-10-27 02:52:00,,0818.6,5.02,0.00,27.8,26.1,00.0,36.7,29.6,11.8,0000.0,0020.20,0005.75,0004.46
2022-10-27 02:53:00,,0818.5,4.99,0.00,27.8,26.1,00.0,36.7,29.6,11.9,0000.0,0020.58,0005.82,0004.52
2022-10-27 02:54:00,,0818.5,4.99,0.00,27.8,26.1,00.0,36.7,29.6,12.0,0000.0,0020.59,0005.89,0004.59
2022-10-27 02:55:00,,0818.5,5.01,0.00,27.8,26.1,00.0,36.7,29.6,12.0,0000.0,0019.77,0005.98,0004.64
2022-10-27 02:56:00,,0818.5,5.00,0.00,27.8,26.1,00.0,36.7,29.6,12.0,0000.0,0018.72,0006.02,0004.65
2022-10-27 02:57:00,,0818.5,4.99,0.00,27.8,26.1,00.0,36.7,29.6,12.0,0000.0,0018.44,0006.05,0004.63
2022-10-27 02:58:00,,0818.5,5.00,0.00,27.8,26.0,00.0,36.7,29.5,12.0,0000.0,0018.80,0006.08,0004.65
2022-10-27 02:59:00,,0818.5,5.00,0.00,27.7,26.0,00.0,36.7,29.5,11.8,0000.0,0019.38,0006.02,0004.61
